User: anonymous   Login
Location: Peebles
(55.6412°N, 3.1714°W)
Time: 06:48:18
(UTC+00:00)
Language:

CUTE-I - Orbit

View from above orbital plane
View from above orbital plane
View from above satellite
View from above satellite

Ground track
Ground track

The orbit data is extracted from the following two-line orbital elements,

1 27844U 03031E   22333.51161708  .00000236  00000-0  12545-3 0  9995
2 27844  98.6797 338.7251 0009593 350.4441   9.6553 14.22547874  7345
Epoch (UTC): 29 November 2022 12:16:43
Eccentricity: 0.0009593
inclination: 98.6797°
perigee height: 810 km
apogee height: 823 km
right ascension of ascending node: 338.7251°
argument of perigee: 350.4441°
revolutions per day: 14.22547874
mean anomaly at epoch: 9.6553°
orbit number at epoch: 734

The dashed part of the orbit path shows where the satellite is in the earth's shadow,  

DLR